SUNNYSIDE Weather Reports


time (UTC)temp
C
wind
direction
speed
KPH
gust
KPH
rain 1hr
cm
rain 24hr
cm
rain mn
cm
humidity
%
barometer
mb
20260903021508 18 42 0.0 6.4 0.00 0.00 0.00 57 983.5
20260903021007 18 43 1.6 6.4 0.00 0.00 0.00 56 983.5
20260903020503 18 33 0.0 4.8 0.00 0.00 0.00 56 983.5
20260903020009 18 40 0.0 6.4 0.00 0.00 0.00 56 983.5
20260903015503 18 46 1.6 6.4 0.00 0.00 0.00 56 983.4
20260903015003 18 49 1.6 6.4 0.00 0.00 0.00 56 983.4
20260903014502 18 32 1.6 6.4 0.00 0.00 0.00 55 983.4
20260903014003 18 55 1.6 6.4 0.00 0.00 0.00 55 983.3
20260903013504 19 44 0.0 4.8 0.00 0.00 0.00 55 983.4
20260903013002 19 25 0.0 3.2 0.00 0.00 0.00 55 983.3
20260903012503 19 25 0.0 3.2 0.00 0.00 0.00 55 983.4
20260903012002 20 24 0.0 3.2 0.00 0.00 0.00 55 983.4
20260903011502 20 24 0.0 4.8 0.00 0.00 0.00 55 983.4
20260903011001 20 24 0.0 4.8 0.00 0.00 0.00 55 983.4
20260903010502 20 24 0.0 4.8 0.00 0.00 0.00 54 983.4
20260903010002 21 24 0.0 4.8 0.00 0.00 0.00 54 983.5
20260903005502 21 16 1.6 6.4 0.00 0.00 0.00 54 983.5
20260903005001 21 21 1.6 8.0 0.00 0.00 0.00 53 983.5
20260903004502 22 5 1.6 8.0 0.00 0.00 0.00 52 983.6
20260903004003 22 19 0.0 6.4 0.00 0.00 0.00 52 983.5
20260903003501 22 17 0.0 4.8 0.00 0.00 0.00 51 983.5
20260903003001 22 12 0.0 4.8 0.00 0.00 0.00 51 983.6
20260903002502 22 11 0.0 4.8 0.00 0.00 0.00 50 983.4
20260903002003 23 19 0.0 4.8 0.00 0.00 0.00 50 983.4
20260903001610 23 19 1.6 4.8 0.00 0.00 0.00 50 983.4
20260903001103 23 355 0.0 4.8 0.00 0.00 0.00 50 983.4
20260903000601 23 21 1.6 8.0 0.00 0.00 0.00 50 983.3
20260903000109 23 32 1.6 8.0 0.00 0.00 0.00 50 983.4
20260902235600 23 11 1.6 6.4 0.00 0.00 0.00 50 983.4
20260902235059 23 39 1.6 6.4 0.00 0.00 0.00 49 983.4
20260902234559 23 13 1.6 8.0 0.00 0.00 0.00 48 983.4
20260902234059 23 82 1.6 8.0 0.00 0.00 0.00 48 983.4
20260902234003 23 83 3.2 8.0 0.00 0.00 0.00 47 983.3
20260902233559 23 11 0.0 8.0 0.00 0.00 0.00 48 983.2
20260902233103 23 360 3.2 8.0 0.00 0.00 0.00 48 983.1
20260902232559 23 17 3.2 8.0 0.00 0.00 0.00 47 983.2
20260902232101 23 25 1.6 8.0 0.00 0.00 0.00 48 983.3
20260902231600 23 13 3.2 8.0 0.00 0.00 0.00 48 983.2
20260902231059 23 32 3.2 9.7 0.00 0.00 0.00 47 983.3
20260902230558 23 56 3.2 9.7 0.00 0.00 0.00 47 983.2
20260902230058 24 37 3.2 9.7 0.00 0.00 0.00 47 983.3
20260902225558 24 42 3.2 8.0 0.00 0.00 0.00 47 983.1
20260902225102 24 28 3.2 8.0 0.00 0.00 0.00 46 983.1
20260902224557 24 48 1.6 8.0 0.00 0.00 0.00 47 983.1
20260902224056 24 309 0.0 4.8 0.00 0.00 0.00 47 983.2
20260902223556 23 360 0.0 6.4 0.00 0.00 0.00 46 983.2
20260902223056 23 306 3.2 9.7 0.00 0.00 0.00 46 983.2
20260902222556 23 277 3.2 9.7 0.00 0.00 0.00 46 983.2
20260902222056 23 238 0.0 9.7 0.00 0.00 0.00 46 983.2
20260902221611 23 255 3.2 9.7 0.00 0.00 0.00 48 983.2
20260902221054 23 253 3.2 9.7 0.00 0.00 0.00 46 983.2
20260902220554 24 221 4.8 9.7 0.00 0.00 0.00 47 983.3
20260902220101 24 254 3.2 6.4 0.00 0.00 0.00 45 983.3
20260902215553 24 289 0.0 4.8 0.00 0.00 0.00 47 983.3
20260902215055 24 300 0.0 4.8 0.00 0.00 0.00 47 983.3
20260902214553 23 300 0.0 6.4 0.00 0.00 0.00 46 983.4
20260902214052 23 360 3.2 6.4 0.00 0.00 0.00 46 983.4
20260902213552 24 281 0.0 4.8 0.00 0.00 0.00 47 983.4
20260902213055 24 18 0.0 4.8 0.00 0.00 0.00 49 983.4
20260902212550 23 18 0.0 4.8 0.00 0.00 0.00 47 983.4
20260902212049 23 18 0.0 6.4 0.00 0.00 0.00 49 983.4
20260902211557 23 69 3.2 9.7 0.00 0.00 0.00 47 983.5
20260902211053 23 42 3.2 9.7 0.00 0.00 0.00 48 983.4
20260902210547 23 360 4.8 9.7 0.00 0.00 0.00 49 983.3
20260902210047 23 63 1.6 9.7 0.00 0.00 0.00 52 983.5
20260902205546 23 276 1.6 9.7 0.00 0.00 0.00 52 983.7
20260902205045 23 344 4.8 9.7 0.00 0.00 0.00 50 983.9
20260902204605 22 55 4.8 9.7 0.00 0.00 0.00 51 983.9
20260902204043 22 28 4.8 8.0 0.00 0.00 0.00 51 983.9
20260902203544 22 44 3.2 9.7 0.00 0.00 0.00 51 983.8
20260902203046 22 39 3.2 9.7 0.00 0.00 0.00 51 983.9
20260902202547 22 46 3.2 6.4 0.00 0.00 0.00 51 983.8
20260902202043 22 90 3.2 14.5 0.00 0.00 0.00 50 983.9
20260902201545 22 11 4.8 14.5 0.00 0.00 0.00 50 983.8
20260902201042 22 5 1.6 11.3 0.00 0.00 0.00 49 983.9
20260902200542 22 302 4.8 8.0 0.00 0.00 0.00 50 983.9
20260902200042 22 343 0.0 6.4 0.00 0.00 0.00 50 983.9
20260902195546 22 350 3.2 12.9 0.00 0.00 0.00 50 984.0
20260902195041 22 348 6.4 14.5 0.00 0.00 0.00 51 984.1
20260902194554 22 62 4.8 14.5 0.00 0.00 0.00 51 984.1
20260902194041 22 98 1.6 9.7 0.00 0.00 0.00 50 984.0
20260902193541 22 42 3.2 8.0 0.00 0.00 0.00 50 984.1
20260902193044 22 341 3.2 9.7 0.00 0.00 0.00 51 984.2
20260902192540 22 355 6.4 9.7 0.00 0.00 0.00 51 984.2
20260902192040 22 335 6.4 9.7 0.00 0.00 0.00 50 984.2
20260902191550 22 61 1.6 4.8 0.00 0.00 0.00 50 984.2
20260902191043 22 61 1.6 6.4 0.00 0.00 0.00 49 984.2
20260902190539 22 74 1.6 8.0 0.00 0.00 0.00 49 984.4
20260902190038 22 46 1.6 8.0 0.00 0.00 0.00 50 984.4
20260902185538 22 55 0.0 6.4 0.00 0.00 0.00 50 984.5
20260902185038 22 49 3.2 8.0 0.00 0.00 0.00 50 984.5
20260902184540 22 16 4.8 8.0 0.00 0.00 0.00 50 984.4
20260902184036 22 28 1.6 6.4 0.00 0.00 0.00 50 984.6
20260902183536 22 88 0.0 8.0 0.00 0.00 0.00 50 984.5
20260902183043 22 88 3.2 8.0 0.00 0.00 0.00 50 984.6
20260902182538 22 67 1.6 8.0 0.00 0.00 0.00 50 984.7
20260902182035 22 80 4.8 8.0 0.00 0.00 0.00 49 984.5
20260902181535 22 69 3.2 9.7 0.00 0.00 0.00 49 984.7
20260902181034 22 65 1.6 9.7 0.00 0.00 0.00 50 984.6
20260902180534 22 65 4.8 8.0 0.00 0.00 0.00 48 984.6
20260902180034 22 360 1.6 9.7 0.00 0.00 0.00 50 984.6
20260902175533 22 341 1.6 8.0 0.00 0.00 0.00 45 984.7
20260902175032 22 20 3.2 8.0 0.00 0.00 0.00 46 984.7
20260902174534 22 49 0.0 6.4 0.00 0.00 0.00 44 984.6
20260902174032 21 21 1.6 3.2 0.00 0.00 0.00 45 984.7
20260902173531 21 18 0.0 6.4 0.00 0.00 0.00 46 984.8
20260902173044 21 248 1.6 6.4 0.00 0.00 0.00 47 984.8
20260902172530 21 254 0.0 8.0 0.00 0.00 0.00 46 984.7
20260902172030 21 246 1.6 8.0 0.00 0.00 0.00 47 984.8
20260902171530 21 245 3.2 6.4 0.00 0.00 0.00 47 984.9
20260902171029 21 296 0.0 11.3 0.00 0.00 0.00 46 984.9
20260902170533 21 284 3.2 11.3 0.00 0.00 0.00 47 985.0
20260902170029 21 286 3.2 8.0 0.00 0.00 0.00 47 984.9
20260902165527 21 360 0.0 6.4 0.00 0.00 0.00 49 984.9
20260902165026 21 248 1.6 6.4 0.00 0.00 0.00 51 985.0
20260902164526 21 249 1.6 6.4 0.00 0.00 0.00 50 985.0
20260902164025 21 273 0.0 6.4 0.00 0.00 0.00 52 984.9
20260902163524 21 243 3.2 6.4 0.00 0.00 0.00 55 984.9
20260902163023 20 246 0.0 4.8 0.00 0.00 0.00 54 984.9
20260902162522 20 246 1.6 4.8 0.00 0.00 0.00 53 984.8
20260902162021 20 275 0.0 6.4 0.00 0.00 0.00 54 984.9
20260902161521 20 275 1.6 6.4 0.00 0.00 0.00 56 985.1
20260902161019 20 273 0.0 3.2 0.00 0.00 0.00 55 984.9
20260902160518 20 273 0.0 4.8 0.00 0.00 0.00 55 984.9
20260902160017 20 273 1.6 4.8 0.00 0.00 0.00 56 985.1
20260902155521 19 360 0.0 4.8 0.00 0.00 0.00 54 985.2
20260902155016 19 360 0.0 4.8 0.00 0.00 0.00 56 985.2
20260902154523 19 360 0.0 3.2 0.00 0.00 0.00 58 985.1
20260902154016 18 360 0.0 4.8 0.00 0.00 0.00 60 985.0
20260902153512 18 360 0.0 4.8 0.00 0.00 0.00 62 985.0
20260902153011 18 331 0.0 3.2 0.00 0.00 0.00 63 985.0
20260902152510 18 338 0.0 4.8 0.00 0.00 0.00 64 985.0
20260902152009 18 338 0.0 4.8 0.00 0.00 0.00 65 985.0
20260902151507 18 336 0.0 4.8 0.00 0.00 0.00 66 985.0
20260902151005 17 340 1.6 4.8 0.00 0.00 0.00 67 985.1
20260902150503 17 238 0.0 3.2 0.00 0.00 0.00 67 985.2
20260902145503 17 238 0.0 3.2 0.00 0.00 0.00 68 985.0
20260902145001 17 238 0.0 3.2 0.00 0.00 0.00 69 985.0
20260902144606 17 238 0.0 3.2 0.00 0.00 0.00 69 985.1
20260902144101 16 238 0.0 3.2 0.00 0.00 0.00 69 985.1
20260902143557 16 238 0.0 3.2 0.00 0.00 0.00 70 985.0
20260902143058 16 238 0.0 3.2 0.00 0.00 0.00 70 985.1
20260902142556 16 233 0.0 1.6 0.00 0.00 0.00 70 985.3
20260902142055 16 233 0.0 1.6 0.00 0.00 0.00 70 985.3
20260902141556 16 233 0.0 1.6 0.00 0.00 0.00 70 985.3
20260902141053 16 233 0.0 0.0 0.00 0.00 0.00 70 985.3
20260902140554 16 233 0.0 0.0 0.00 0.00 0.00 70 985.2
20260902140051 16 233 0.0 1.6 0.00 0.00 0.00 70 985.2
20260902135549 15 233 0.0 1.6 0.00 0.00 0.00 70 985.3
20260902135049 15 233 0.0 3.2 0.00 0.00 0.00 70 985.3
20260902134550 15 233 1.6 3.2 0.00 0.00 0.00 70 985.3
20260902134046 15 233 1.6 3.2 0.00 0.00 0.00 70 985.2
20260902133546 15 233 0.0 6.4 0.00 0.00 0.00 71 985.2
20260902133047 15 233 1.6 6.4 0.00 0.00 0.00 70 985.2
20260902132549 15 233 3.2 6.4 0.00 0.00 0.00 71 985.2
20260902132043 15 233 4.8 6.4 0.00 0.00 0.00 71 985.3
20260902131602 14 233 1.6 4.8 0.00 0.00 0.00 71 985.2
20260902131042 14 233 1.6 4.8 0.00 0.00 0.00 71 985.1
20260902130540 14 233 3.2 4.8 0.00 0.00 0.00 71 985.1
20260902130051 14 233 1.6 3.2 0.00 0.00 0.00 71 985.0
20260902125538 13 233 0.0 6.4 0.00 0.00 0.00 71 985.0
20260902125038 13 233 3.2 6.4 0.00 0.00 0.00 71 985.1
20260902124537 13 233 0.0 4.8 0.00 0.00 0.00 71 985.0
20260902124036 13 233 1.6 4.8 0.00 0.00 0.00 71 984.9
20260902123536 13 233 1.6 4.8 0.00 0.00 0.00 71 984.9
20260902123036 13 233 0.0 1.6 0.00 0.00 0.00 71 984.8
20260902122536 13 233 0.0 0.0 0.00 0.00 0.00 71 984.7
20260902122036 12 233 0.0 0.0 0.00 0.00 0.00 71 984.7
20260902121537 12 233 0.0 1.6 0.00 0.00 0.00 71 984.6
20260902121034 12 233 0.0 6.4 0.00 0.00 0.00 71 984.8
20260902120534 12 233 3.2 6.4 0.00 0.00 0.00 70 984.7
20260902120034 13 233 0.0 0.0 0.00 0.00 0.00 70 984.8
20260902115537 13 233 0.0 0.0 0.00 0.00 0.00 71 984.8
20260902115035 13 233 0.0 0.0 0.00 0.00 0.00 71 984.8
20260902114535 13 233 0.0 0.0 0.00 0.00 0.00 71 984.8
20260902114036 13 233 0.0 0.0 0.00 0.00 0.00 71 984.7
20260902113534 12 233 0.0 0.0 0.00 0.00 0.00 71 984.7
20260902113033 12 233 0.0 0.0 0.00 0.00 0.00 71 984.7
20260902112534 12 233 0.0 0.0 0.00 0.00 0.00 71 984.6
20260902112036 12 233 0.0 0.0 0.00 0.00 0.00 71 984.6
20260902111534 12 233 0.0 0.0 0.00 0.00 0.00 70 984.7
20260902111032 12 233 0.0 0.0 0.00 0.00 0.00 70 984.7
20260902110531 12 233 0.0 0.0 0.00 0.00 0.00 70 984.6
20260902110042 12 233 0.0 0.0 0.00 0.00 0.00 71 984.5
20260902105530 12 233 0.0 0.0 0.00 0.00 0.00 71 984.6
20260902105030 12 233 0.0 0.0 0.00 0.00 0.00 70 984.6
20260902104537 12 233 0.0 0.0 0.00 0.00 0.00 71 984.6
20260902104029 12 233 0.0 0.0 0.00 0.00 0.00 70 984.7
20260902103528 12 233 0.0 0.0 0.00 0.00 0.00 70 984.7
20260902103034 12 233 0.0 0.0 0.00 0.00 0.00 70 984.7
20260902102528 12 233 0.0 0.0 0.00 0.00 0.00 70 984.7
20260902102028 12 233 0.0 0.0 0.00 0.00 0.00 70 984.6
20260902101528 13 233 0.0 0.0 0.00 0.00 0.00 70 984.7
20260902101027 13 233 0.0 0.0 0.00 0.00 0.00 70 984.7
20260902100530 13 233 0.0 0.0 0.00 0.00 0.00 71 984.7
20260902100027 13 233 0.0 0.0 0.00 0.00 0.00 71 984.7
20260902095528 13 233 0.0 0.0 0.00 0.00 0.00 71 984.7
20260902095026 13 233 0.0 3.2 0.00 0.00 0.00 71 984.6
20260902094526 12 233 0.0 4.8 0.00 0.00 0.00 70 984.6
20260902094033 13 233 3.2 4.8 0.00 0.00 0.00 70 984.7
20260902093526 13 233 3.2 4.8 0.00 0.00 0.00 70 984.7
20260902093035 13 233 0.0 3.2 0.00 0.00 0.00 70 984.6
20260902092525 13 233 0.0 1.6 0.00 0.00 0.00 70 984.5
20260902092024 13 233 0.0 3.2 0.00 0.00 0.00 70 984.5
20260902091527 13 233 1.6 3.2 0.00 0.00 0.00 70 984.5
20260902091024 13 233 1.6 3.2 0.00 0.00 0.00 70 984.4
20260902090523 13 233 1.6 3.2 0.00 0.00 0.00 70 984.4
20260902090023 13 233 1.6 4.8 0.00 0.00 0.00 70 984.4
20260902085523 13 233 3.2 4.8 0.00 0.00 0.00 70 984.4
20260902085023 13 233 1.6 3.2 0.00 0.00 0.00 70 984.4
20260902084525 13 233 1.6 3.2 0.00 0.00 0.00 70 984.4
20260902084023 13 233 0.0 3.2 0.00 0.00 0.00 70 984.4
20260902083522 13 233 0.0 3.2 0.00 0.00 0.00 70 984.4
20260902083033 13 233 1.6 3.2 0.00 0.00 0.00 70 984.4
20260902082522 13 233 1.6 3.2 0.00 0.00 0.00 70 984.6
20260902082021 13 233 0.0 0.0 0.00 0.00 0.00 70 984.5
20260902081526 12 233 0.0 0.0 0.00 0.00 0.00 70 984.4
20260902081020 12 233 0.0 1.6 0.00 0.00 0.00 70 984.4
20260902080520 12 233 0.0 1.6 0.00 0.00 0.00 70 984.3
20260902080026 13 233 0.0 0.0 0.00 0.00 0.00 69 984.4
20260902075517 13 233 0.0 0.0 0.00 0.00 0.00 69 984.4
20260902075019 13 233 0.0 0.0 0.00 0.00 0.00 70 984.4
20260902074517 13 233 0.0 0.0 0.00 0.00 0.00 70 984.4
20260902074018 13 233 0.0 3.2 0.00 0.00 0.00 70 984.4
20260902073517 13 233 0.0 4.8 0.00 0.00 0.00 70 984.3
20260902073028 13 233 3.2 4.8 0.00 0.00 0.00 70 984.4
20260902072516 13 233 3.2 4.8 0.00 0.00 0.00 70 984.4
20260902072017 13 233 0.0 3.2 0.00 0.00 0.00 70 984.4
20260902071518 13 233 0.0 0.0 0.00 0.00 0.00 70 984.4
20260902071016 13 233 0.0 0.0 0.00 0.00 0.00 70 984.5
20260902070515 13 233 0.0 0.0 0.00 0.00 0.00 70 984.4
20260902070015 13 233 0.0 3.2 0.00 0.00 0.00 70 984.4
20260902065514 13 233 0.0 3.2 0.00 0.00 0.00 70 984.3
20260902065014 13 233 1.6 4.8 0.00 0.00 0.00 70 984.3
20260902064515 13 233 3.2 4.8 0.00 0.00 0.00 70 984.3
20260902064014 13 233 1.6 4.8 0.00 0.00 0.00 70 984.3
20260902063515 13 233 1.6 3.2 0.00 0.00 0.00 70 984.2
20260902063016 13 233 0.0 3.2 0.00 0.00 0.00 70 984.3
20260902062512 13 233 1.6 3.2 0.00 0.00 0.00 70 984.3
20260902062011 13 233 1.6 3.2 0.00 0.00 0.00 70 984.3
20260902061513 13 233 1.6 6.4 0.00 0.00 0.00 70 984.2
20260902061019 13 233 3.2 6.4 0.00 0.00 0.00 70 984.2
20260902060510 13 244 3.2 6.4 0.00 0.00 0.00 70 984.1
20260902060010 13 244 3.2 6.4 0.00 0.00 0.00 70 984.1
20260902055509 13 269 4.8 6.4 0.00 0.00 0.00 70 984.1
20260902055009 13 269 3.2 4.8 0.00 0.00 0.00 70 984.1
20260902054520 13 269 1.6 3.2 0.00 0.00 0.00 70 984.1
20260902054007 13 269 0.0 4.8 0.00 0.00 0.00 69 984.0
20260902053507 13 269 3.2 4.8 0.00 0.00 0.00 69 983.9
20260902053008 13 269 1.6 4.8 0.00 0.00 0.00 69 983.8
20260902052507 13 273 0.0 3.2 0.00 0.00 0.00 70 983.8
20260902052004 13 273 0.0 1.6 0.00 0.00 0.00 70 983.9
20260902051507 13 273 0.0 1.6 0.00 0.00 0.00 69 983.9
20260902051004 13 273 0.0 0.0 0.00 0.00 0.00 69 983.9
20260902050503 13 273 0.0 0.0 0.00 0.00 0.00 69 983.9
20260902050004 13 273 0.0 0.0 0.00 0.00 0.00 69 983.9
20260902045502 13 273 0.0 0.0 0.00 0.00 0.00 69 983.9
20260902045001 13 273 0.0 3.2 0.00 0.00 0.00 69 983.9
20260902044502 14 273 0.0 3.2 0.00 0.00 0.00 69 983.9
20260902044002 14 257 0.0 0.0 0.00 0.00 0.00 69 983.9
20260902043501 14 257 0.0 0.0 0.00 0.00 0.00 69 984.0
20260902043001 14 257 0.0 0.0 0.00 0.00 0.00 69 984.0
20260902042501 15 257 0.0 0.0 0.00 0.00 0.00 69 984.0
20260902042001 15 257 0.0 0.0 0.00 0.00 0.00 69 984.0
20260902041610 14 257 0.0 1.6 0.00 0.00 0.00 69 984.0
20260902041059 14 257 0.0 3.2 0.00 0.00 0.00 69 984.0
20260902040559 14 257 0.0 3.2 0.00 0.00 0.00 69 983.9
20260902040103 14 257 0.0 1.6 0.00 0.00 0.00 68 983.9
20260902035559 14 257 0.0 3.2 0.00 0.00 0.00 68 983.9
20260902035058 14 257 0.0 3.2 0.00 0.00 0.00 67 983.9
20260902034559 14 257 0.0 4.8 0.00 0.00 0.00 66 983.8
20260902034100 15 257 1.6 4.8 0.00 0.00 0.00 66 983.9
20260902033557 15 257 3.2 4.8 0.00 0.00 0.00 66 983.9
20260902033101 15 343 0.0 0.0 0.00 0.00 0.00 65 983.8
20260902032601 15 343 0.0 3.2 0.00 0.00 0.00 65 983.8
20260902032056 15 343 1.6 3.2 0.00 0.00 0.00 66 983.8
20260902031556 15 344 0.0 0.0 0.00 0.00 0.00 63 983.7
20260902031056 15 344 0.0 0.0 0.00 0.00 0.00 61 983.7
20260902030559 15 344 0.0 0.0 0.00 0.00 0.00 61 983.7
20260902030055 15 344 0.0 0.0 0.00 0.00 0.00 60 983.6
20260902025555 15 344 0.0 0.0 0.00 0.00 0.00 59 983.5
20260902025054 16 344 0.0 0.0 0.00 0.00 0.00 60 983.5
20260902024553 16 344 0.0 0.0 0.00 0.00 0.00 60 983.4
20260902024053 16 344 0.0 0.0 0.00 0.00 0.00 59 983.3
20260902023553 16 344 0.0 0.0 0.00 0.00 0.00 59 983.3
20260902023053 16 344 0.0 0.0 0.00 0.00 0.00 59 983.3
20260902022554 16 344 0.0 0.0 0.00 0.00 0.00 58 983.3
20260902022052 16 344 0.0 0.0 0.00 0.00 0.00 57 983.4